IRIDIUM 90 [-] (27373 NORAD) Tracking and Keplerian Element Data

This shows tracking and keplerian element data for the satellite.

Feedback or suggestion? Click here.




ElementValue
Catalog27373
NameIRIDIUM 90 [-]
Epoch Orbit89933
Epoch Day23.66723495
Epoch Year2019
RAAN78.4203
Inclination86.3941
Eccentricity0.0013927
Argument of Perigee197.2183
Mean Anonmoly162.8657
Mean Motion16.44980465
Decay Rate0.09767247
L11 27373U 02005B 19023.66723495 .09767247 -14688-5 23805-3 0 9992
L22 27373 86.3941 78.4203 0013927 197.2183 162.8657 16.44980465899336



Live tracking and technical data element details for IRIDIUM 90 [-] (NORAD 27373). IRIDIUM 90 [-] can be tracked NOW for your location showing map with azimuth and elevation plus other details from your city location.







IsCatalogInMostPopularTable: catalog: 27373, numindb: 436
Update: records affected: 1



GetName: 27373 IRIDIUM 90 [-]

Hit Count: updated at: Fri, 16 May 2025 11:19:03 GMT